Flag for Germany Weather past 2 weeks in Leonberg, Baden-Württemberg, Germany

Now
82 °F

Sunny.


Feels Like: 81 °F
Forecast: 54 / 86 °F
Wind: 2 mph from North

Location: Stuttgart-Echterdingen

Current Time: Aug 2, 2015 at 7:16:59 PM

Latest Report: Aug 2, 2015 at 6:20 PM


Visibility: 10 mi

Pressure: 30.07 "Hg

Humidity: 28%

Dew point: 46 °F

Location of LeonbergLocation

Historic Weather in Leonberg — Graph

°F

Leonberg temperature yesterday

Maximum temperature yesterday: 73 °F (at 3:20 PM)
Minimum temperature yesterday: 57 °F (at 4:50 AM)
Average temperature yesterday: 65 °F

Past Weeks' High & Low Weather Summary

 TemperatureHumidityPressure
High95 °F (Jul 22, 2:20 PM)94% (Jul 23, 1:50 AM)30.12 "Hg (Jul 23, 1:50 AM)
Low46 °F (Jul 31, 5:50 AM)26% (Jul 22, 2:20 PM)29.71 "Hg (Jul 24, 7:20 PM)
Average68 °F62%29.95 "Hg
* Reported Jul 18 6:20 PM — Aug 2 6:20 PM, Leonberg, Weather by CustomWeather, © 2015

Note: Actual official high and low records may vary slightly from our data, if they occured in-between our weather recording intervals... More about our weather records

Advertising

Leonberg weather history for previous 24 hours

 ConditionsComfort  
Time TempWeatherWind HumidityBarometerVisibility
6:20 PM
Sun, Aug 2
82 °FSunny.2 mph28%30.07 "Hg10 mi
5:50 PM82 °FPassing clouds.5 mph28%30.07 "HgN/A
5:20 PM82 °FPassing clouds.6 mph28%30.07 "HgN/A
4:50 PM82 °FSunny.3 mph28%30.07 "Hg10 mi
4:20 PM82 °FPassing clouds.6 mph30%30.07 "HgN/A
3:50 PM82 °FPassing clouds.6 mph30%30.09 "HgN/A
3:20 PM81 °FSunny.5 mph30%30.09 "Hg10 mi
2:50 PM81 °FPassing clouds.9 mph28%30.09 "HgN/A
2:20 PM81 °FPassing clouds.7 mph30%30.09 "HgN/A
1:50 PM79 °FPassing clouds.8 mph30%30.09 "HgN/A
1:20 PM79 °FPassing clouds.6 mph34%30.09 "HgN/A
12:50 PM77 °FPassing clouds.5 mph39%30.12 "HgN/A
12:20 PM77 °FSunny.5 mph44%30.12 "Hg10 mi
11:50 AM75 °FPassing clouds.2 mph44%30.12 "HgN/A
11:20 AM73 °FPassing clouds.2 mph53%30.12 "HgN/A
10:50 AM72 °FPassing clouds.3 mph57%30.12 "HgN/A
10:20 AM70 °FPassing clouds.3 mph60%30.12 "HgN/A
9:50 AM70 °FSunny.3 mph60%30.12 "Hg10 mi
9:20 AM68 °FPassing clouds.3 mph69%30.12 "HgN/A
8:50 AM66 °FSunny.1 mph73%30.12 "Hg10 mi
8:20 AM64 °FSunny.1 mph78%30.12 "Hg10 mi
7:50 AM61 °FSunny.1 mph88%30.12 "Hg10 mi
7:20 AM57 °FSunny.2 mph94%30.12 "Hg10 mi
6:50 AM55 °FClear.2 mph94%30.09 "Hg10 mi
6:20 AM55 °FClear.1 mph94%30.09 "Hg10 mi
5:50 AM55 °FClear.1 mph94%30.09 "Hg10 mi
5:20 AM57 °FClear.3 mph88%30.09 "Hg10 mi
4:50 AM57 °FClear.2 mph88%30.09 "Hg10 mi
4:20 AM57 °FClear.2 mph88%30.09 "Hg10 mi
3:50 AM59 °FClear.1 mph88%30.07 "Hg10 mi
3:20 AM59 °FPassing clouds.3 mph88%30.07 "HgN/A
2:20 AM61 °FClear.2 mph83%30.07 "Hg10 mi
1:50 AM61 °FClear.2 mph83%30.07 "Hg10 mi
1:20 AM63 °FClear.1 mph77%30.07 "Hg10 mi
12:50 AM63 °FClear.2 mph77%30.07 "Hg10 mi
12:20 AM64 °FClear.No wind78%30.07 "Hg10 mi
11:20 PM
Sat, Aug 1
66 °FClear.2 mph73%30.04 "Hg10 mi
10:50 PM66 °FClear.2 mph73%30.04 "Hg10 mi
10:20 PM66 °FClear.5 mph73%30.04 "Hg10 mi
9:50 PM68 °FLight rain. Clear.1 mph69%30.04 "HgN/A
9:20 PM68 °FSunny.1 mph73%30.01 "Hg10 mi
8:50 PM68 °FLight rain. Clear.1 mph69%30.01 "HgN/A
8:20 PM70 °FLight rain. Clear.2 mph60%30.01 "HgN/A
7:50 PM70 °FSunny.2 mph60%29.98 "Hg10 mi
7:20 PM72 °FLight rain. Partly sunny.2 mph53%29.98 "HgN/A
Weather by CustomWeather, © 2015

See weather overviewHow to use our weather pages